Flag for U.S.A. Weather past 2 weeks in Rancho Cucamonga, California, U.S.A.

Now
64 °F

Passing clouds.


Feels Like: 64 °F
Forecast: 65 / 89 °F
Wind: 3 mph from Southwest

Location: Ontario International Airport

Current Time: Jul 4, 2015 at 7:19:09 AM

Latest Report: Jul 4, 2015 at 6:53 AM


Visibility: 9 mi

Pressure: 29.84 "Hg

Humidity: 81%

Dew point: 58 °F

Location of Rancho CucamongaLocation

Historic Weather in Rancho Cucamonga — Graph

°F

Rancho Cucamonga temperature yesterday

Maximum temperature yesterday: 92 °F (at 3:53 PM)
Minimum temperature yesterday: 67 °F (at 3:53 AM)
Average temperature yesterday: 77 °F

Past Weeks' High & Low Weather Summary

 TemperatureHumidityPressure
High102 °F (Jun 28, 3:53 PM)81% (Jun 21, 5:53 AM)29.97 "Hg (Jun 21, 5:53 AM)
Low63 °F (Jun 21, 5:53 AM)12% (Jun 22, 3:53 PM)29.74 "Hg (Jun 20, 2:53 AM)
Average80 °F46%29.86 "Hg
* Reported Jun 19 5:53 AM — Jul 4 5:53 AM, Rancho Cucamonga, Weather by CustomWeather, © 2015

Note: Actual official high and low records may vary slightly from our data, if they occured in-between our weather recording intervals... More about our weather records

Advertising

Rancho Cucamonga weather history for previous 24 hours

 ConditionsComfort  
Time TempWeatherWind HumidityBarometerVisibility
5:53 AM
Sat, Jul 4
63 °FPassing clouds.3 mph81%29.83 "Hg10 mi
4:53 AM63 °FPassing clouds.5 mph78%29.83 "Hg10 mi
3:53 AM64 °FClear.7 mph75%29.83 "Hg10 mi
2:53 AM66 °FClear.6 mph65%29.83 "Hg10 mi
1:53 AM67 °FClear.5 mph71%29.83 "Hg10 mi
12:53 AM68 °FPassing clouds.6 mph65%29.84 "Hg10 mi
11:53 PM
Fri, Jul 3
69 °FPassing clouds.5 mph61%29.85 "Hg10 mi
10:53 PM71 °FPassing clouds.7 mph57%29.85 "Hg10 mi
9:53 PM74 °FPassing clouds.6 mph52%29.84 "Hg10 mi
8:53 PM76 °FScattered clouds.10 mph45%29.81 "Hg10 mi
7:53 PM81 °FBroken clouds.9 mph37%29.80 "Hg10 mi
6:53 PM85 °FScattered clouds.12 mph36%29.78 "Hg10 mi
5:53 PM88 °FBroken clouds.12 mph38%29.77 "Hg10 mi
4:53 PM89 °FBroken clouds.13 mph36%29.78 "Hg10 mi
3:53 PM92 °FBroken clouds.14 mph32%29.79 "Hg10 mi
2:53 PM90 °FBroken clouds.10 mph34%29.82 "Hg10 mi
1:53 PM88 °FBroken clouds.8 mph36%29.84 "Hg10 mi
12:53 PM88 °FScattered clouds.9 mph35%29.87 "Hg10 mi
11:53 AM84 °FScattered clouds.7 mph36%29.89 "Hg10 mi
10:53 AM81 °FScattered clouds.9 mph39%29.91 "Hg10 mi
9:53 AM79 °FPartly sunny.6 mph44%29.92 "Hg10 mi
8:53 AM74 °FPartly sunny.6 mph57%29.92 "Hg10 mi
7:53 AM70 °FPartly sunny.No wind68%29.93 "Hg10 mi
Weather by CustomWeather, © 2015

See weather overviewHow to use our weather pages